GFSMA_prec_precacc24_126.txt.gz
Total_Precipitation_Accumulation
0.01 0.01 0.00 0.00 0.00 0.00 0.00 0.00 0.00 0.00 0.00 0.00 0.00 0.00 0.00 0.00 0.00 0.00 0.00 0.00 0.00 0.00 0.00 0.00 0.00 0.00 0.00 0.00 0.00 0.00 0.00 0.00 0.00 0.00 0.00 0.00 0.00 0.00 0.00 0.00 0.00 0.00 0.00
0.00 0.00 0.00 0.00 0.00 0.00 0.00 0.00 0.00 0.00 0.00 0.00 0.00 0.00 0.00 0.00 0.00 0.00 0.00 0.00 0.00 0.00 0.00 0.01 0.02 0.00 0.00 0.00 0.00 0.00 0.00 0.00 0.00 0.00 0.00 0.00 0.00 0.00 0.00 0.00 0.00 0.00 0.00
0.00 0.00 0.00 0.00 0.00 0.00 0.00 0.00 0.00 0.00 0.00 0.00 0.00 0.00 0.00 0.00 0.00 0.00 0.00 0.00 0.00 0.00 0.00 0.02 0.20 0.15 0.04 0.02 0.03 0.00 0.00 0.00 0.00 0.00 0.00 0.00 0.00 0.00 0.00 0.00 0.00 0.00 0.00
0.00 0.00 0.00 0.00 0.00 0.00 0.00 0.00 0.00 0.00 0.00 0.00 0.00 0.00 0.00 0.00 0.00 0.00 0.00 0.00 0.00 0.00 0.00 0.00 0.07 0.19 0.17 0.15 0.28 0.47 0.28 0.12 0.04 0.01 0.00 0.00 0.00 0.00 0.00 0.00 0.00 0.00 0.00
0.00 0.00 0.00 0.00 0.00 0.00 0.00 0.00 0.00 0.00 0.00 0.00 0.00 0.00 0.00 0.00 0.00 0.00 0.00 0.00 0.00 0.00 0.00 0.00 0.00 0.02 0.09 0.20 0.30 0.39 0.64 0.48 0.26 0.18 0.13 0.06 0.02 0.00 0.00 0.00 0.00 0.00 0.00
0.00 0.00 0.00 0.00 0.00 0.00 0.00 0.00 0.00 0.00 0.00 0.00 0.00 0.00 0.00 0.00 0.00 0.00 0.00 0.00 0.00 0.00 0.00 0.00 0.00 0.00 0.00 0.00 0.06 0.21 0.30 0.31 0.27 0.27 0.20 0.14 0.13 0.10 0.06 0.03 0.00 0.00 0.00
0.00 0.00 0.00 0.00 0.00 0.00 0.00 0.00 0.00 0.00 0.00 0.00 0.00 0.00 0.00 0.00 0.00 0.00 0.00 0.00 0.00 0.00 0.00 0.01 0.03 0.06 0.03 0.04 0.02 0.04 0.08 0.06 0.04 0.17 0.33 0.44 0.36 0.23 0.16 0.13 0.11 0.05 0.02
0.02 0.01 0.02 0.02 0.00 0.00 0.00 0.00 0.00 0.00 0.00 0.00 0.00 0.00 0.00 0.00 0.00 0.00 0.01 0.00 0.00 0.01 0.03 0.07 0.11 0.12 0.07 0.04 0.03 0.02 0.01 0.00 0.01 0.03 0.06 0.16 0.37 0.37 0.30 0.20 0.19 0.15 0.13
0.06 0.05 0.05 0.11 0.05 0.05 0.06 0.02 0.02 0.02 0.03 0.04 0.05 0.08 0.13 0.14 0.12 0.04 0.03 0.04 0.07 0.07 0.06 0.04 0.05 0.04 0.04 0.03 0.02 0.01 0.02 0.03 0.07 0.06 0.02 0.02 0.06 0.15 0.26 0.33 0.38 0.31 0.29
0.07 0.06 0.12 0.21 0.25 0.35 0.31 0.22 0.18 0.24 0.32 0.34 0.34 0.35 0.36 0.29 0.23 0.11 0.03 0.03 0.05 0.06 0.05 0.03 0.02 0.03 0.03 0.02 0.04 0.08 0.12 0.10 0.03 0.00 0.01 0.01 0.01 0.07 0.09 0.23 0.40 0.48 0.41
0.26 0.30 0.39 0.56 0.75 0.88 0.82 0.86 0.88 0.87 0.71 0.52 0.35 0.24 0.19 0.22 0.28 0.42 0.36 0.23 0.18 0.09 0.04 0.04 0.04 0.03 0.05 0.07 0.07 0.06 0.05 0.02 0.01 0.02 0.03 0.03 0.04 0.03 0.03 0.07 0.14 0.33 0.43
0.90 0.95 0.96 0.81 0.73 0.71 0.67 0.66 0.70 0.52 0.36 0.23 0.18 0.20 0.21 0.21 0.21 0.25 0.23 0.08 0.04 0.02 0.02 0.02 0.03 0.03 0.02 0.01 0.02 0.02 0.04 0.07 0.06 0.05 0.06 0.07 0.10 0.10 0.08 0.04 0.07 0.22 0.34
0.58 0.51 0.40 0.49 0.52 0.42 0.25 0.23 0.20 0.15 0.09 0.07 0.09 0.10 0.11 0.09 0.08 0.06 0.07 0.05 0.03 0.02 0.02 0.02 0.02 0.02 0.01 0.00 0.01 0.02 0.04 0.07 0.06 0.08 0.16 0.22 0.10 0.04 0.02 0.03 0.04 0.38 0.69
0.31 0.34 0.23 0.34 0.39 0.31 0.25 0.11 0.05 0.05 0.04 0.04 0.03 0.02 0.03 0.03 0.05 0.07 0.06 0.06 0.03 0.01 0.00 0.00 0.00 0.00 0.00 0.00 0.01 0.03 0.05 0.09 0.07 0.11 0.15 0.18 0.05 0.02 0.01 0.01 0.03 0.09 0.36
0.52 0.33 0.38 0.29 0.28 0.26 0.20 0.14 0.08 0.05 0.02 0.03 0.02 0.00 0.00 0.00 0.01 0.04 0.06 0.10 0.15 0.05 0.01 0.00 0.00 0.00 0.01 0.02 0.05 0.04 0.06 0.10 0.09 0.06 0.05 0.06 0.06 0.05 0.04 0.05 0.05 0.09 0.09
0.59 0.48 0.33 0.29 0.24 0.28 0.36 0.20 0.10 0.08 0.02 0.01 0.01 0.00 0.00 0.00 0.00 0.00 0.01 0.02 0.04 0.06 0.05 0.00 0.01 0.01 0.01 0.01 0.02 0.01 0.02 0.06 0.08 0.08 0.08 0.07 0.06 0.05 0.04 0.02 0.01 0.03 0.10
0.43 0.44 0.41 0.32 0.21 0.15 0.17 0.27 0.12 0.06 0.05 0.02 0.01 0.00 0.00 0.00 0.00 0.00 0.00 0.00 0.01 0.04 0.05 0.03 0.04 0.04 0.02 0.02 0.02 0.02 0.02 0.01 0.03 0.06 0.04 0.02 0.01 0.01 0.00 0.00 0.00 0.00 0.03
0.42 0.35 0.32 0.37 0.31 0.22 0.17 0.13 0.10 0.05 0.02 0.01 0.01 0.02 0.01 0.00 0.00 0.00 0.00 0.00 0.00 0.01 0.01 0.02 0.02 0.03 0.02 0.02 0.02 0.01 0.01 0.01 0.01 0.05 0.03 0.02 0.01 0.01 0.01 0.00 0.00 0.00 0.01
0.57 0.40 0.34 0.28 0.21 0.18 0.16 0.12 0.10 0.10 0.05 0.04 0.04 0.03 0.02 0.01 0.00 0.00 0.00 0.00 0.00 0.01 0.02 0.02 0.03 0.03 0.04 0.05 0.04 0.02 0.01 0.02 0.02 0.08 0.03 0.02 0.02 0.01 0.01 0.00 0.01 0.01 0.01
0.65 0.57 0.49 0.36 0.28 0.21 0.18 0.15 0.09 0.07 0.07 0.05 0.04 0.04 0.03 0.02 0.01 0.01 0.00 0.01 0.01 0.02 0.02 0.02 0.03 0.02 0.02 0.02 0.02 0.01 0.01 0.00 0.01 0.02 0.06 0.05 0.04 0.02 0.01 0.01 0.01 0.00 0.00
0.41 0.47 0.59 0.63 0.50 0.44 0.30 0.19 0.13 0.10 0.10 0.14 0.09 0.03 0.02 0.02 0.02 0.01 0.00 0.00 0.01 0.01 0.02 0.02 0.03 0.03 0.03 0.03 0.03 0.03 0.03 0.03 0.03 0.02 0.03 0.03 0.02 0.02 0.02 0.01 0.00 0.00 0.00
0.16 0.20 0.29 0.41 0.47 0.36 0.46 0.47 0.34 0.19 0.14 0.15 0.18 0.13 0.05 0.02 0.01 0.00 0.00 0.00 0.00 0.00 0.00 0.00 0.00 0.01 0.01 0.01 0.01 0.02 0.03 0.02 0.02 0.01 0.01 0.01 0.01 0.01 0.01 0.01 0.04 0.01 0.00
0.21 0.22 0.29 0.28 0.26 0.19 0.23 0.31 0.39 0.32 0.21 0.14 0.09 0.07 0.06 0.01 0.00 0.00 0.00 0.00 0.00 0.01 0.01 0.00 0.00 0.00 0.00 0.00 0.00 0.00 0.01 0.02 0.02 0.01 0.01 0.01 0.00 0.00 0.00 0.01 0.02 0.00 0.00
0.08 0.14 0.17 0.26 0.33 0.36 0.29 0.24 0.31 0.35 0.30 0.20 0.15 0.10 0.02 0.01 0.01 0.00 0.00 0.00 0.00 0.00 0.00 0.00 0.00 0.00 0.00 0.00 0.00 0.00 0.00 0.00 0.00 0.00 0.00 0.01 0.00 0.00 0.00 0.00 0.01 0.01 0.00
0.02 0.02 0.03 0.08 0.09 0.08 0.12 0.13 0.10 0.09 0.11 0.07 0.03 0.01 0.00 0.00 0.02 0.01 0.00 0.00 0.00 0.00 0.00 0.01 0.00 0.00 0.01 0.01 0.00 0.00 0.00 0.00 0.00 0.00 0.00 0.00 0.00 0.00 0.00 0.00 0.00 0.01 0.00
0.01 0.01 0.01 0.02 0.09 0.19 0.23 0.22 0.19 0.12 0.06 0.03 0.03 0.02 0.02 0.01 0.01 0.01 0.00 0.00 0.00 0.00 0.00 0.00 0.00 0.00 0.00 0.00 0.01 0.00 0.00 0.00 0.00 0.00 0.00 0.00 0.00 0.00 0.00 0.00 0.00 0.00 0.00

GFSMA_prec_precacc24_132.txt.gz
Total_Precipitation_Accumulation
0.01 0.01 0.00 0.00 0.00 0.00 0.00 0.00 0.00 0.00 0.00 0.00 0.00 0.00 0.00 0.00 0.00 0.00 0.00 0.00 0.00 0.00 0.00 0.00 0.00 0.00 0.00 0.00 0.00 0.00 0.00 0.00 0.00 0.00 0.00 0.00 0.00 0.00 0.00 0.00 0.00 0.00 0.00
0.00 0.00 0.00 0.00 0.00 0.00 0.00 0.00 0.00 0.00 0.00 0.00 0.00 0.00 0.00 0.00 0.00 0.00 0.00 0.00 0.00 0.00 0.00 0.01 0.01 0.00 0.00 0.00 0.00 0.00 0.00 0.00 0.00 0.00 0.00 0.00 0.00 0.00 0.00 0.00 0.00 0.00 0.00
0.00 0.00 0.00 0.00 0.00 0.00 0.00 0.00 0.00 0.00 0.00 0.00 0.00 0.00 0.00 0.00 0.00 0.00 0.00 0.00 0.00 0.00 0.00 0.02 0.12 0.07 0.03 0.03 0.04 0.02 0.01 0.00 0.00 0.00 0.00 0.00 0.00 0.00 0.00 0.00 0.00 0.00 0.00
0.00 0.00 0.00 0.00 0.00 0.00 0.00 0.00 0.00 0.00 0.00 0.00 0.00 0.00 0.00 0.00 0.00 0.00 0.00 0.00 0.00 0.00 0.00 0.00 0.05 0.16 0.24 0.27 0.38 0.56 0.49 0.31 0.16 0.08 0.04 0.01 0.00 0.00 0.00 0.00 0.00 0.00 0.00
0.01 0.00 0.00 0.00 0.00 0.00 0.00 0.00 0.00 0.00 0.00 0.00 0.00 0.00 0.00 0.00 0.00 0.00 0.00 0.00 0.00 0.00 0.00 0.00 0.00 0.03 0.11 0.19 0.26 0.36 0.53 0.37 0.31 0.29 0.21 0.13 0.08 0.04 0.03 0.01 0.00 0.00 0.00
0.05 0.01 0.00 0.00 0.00 0.00 0.00 0.00 0.00 0.00 0.00 0.00 0.00 0.00 0.00 0.00 0.00 0.00 0.00 0.00 0.00 0.00 0.00 0.00 0.00 0.00 0.00 0.00 0.05 0.16 0.24 0.20 0.12 0.16 0.14 0.14 0.13 0.11 0.09 0.05 0.03 0.03 0.00
0.12 0.08 0.05 0.01 0.00 0.00 0.00 0.00 0.00 0.00 0.00 0.00 0.00 0.00 0.00 0.00 0.00 0.00 0.00 0.00 0.00 0.00 0.00 0.00 0.03 0.06 0.03 0.04 0.02 0.03 0.08 0.06 0.01 0.04 0.10 0.20 0.23 0.21 0.17 0.13 0.16 0.12 0.05
0.13 0.12 0.10 0.07 0.02 0.00 0.00 0.00 0.00 0.00 0.00 0.00 0.00 0.00 0.00 0.00 0.00 0.00 0.00 0.00 0.00 0.00 0.00 0.03 0.08 0.11 0.07 0.04 0.03 0.02 0.01 0.00 0.01 0.03 0.04 0.06 0.15 0.17 0.23 0.20 0.20 0.16 0.15
0.16 0.16 0.14 0.15 0.09 0.05 0.04 0.02 0.01 0.01 0.01 0.01 0.01 0.02 0.05 0.09 0.09 0.02 0.01 0.01 0.03 0.02 0.01 0.02 0.02 0.03 0.03 0.03 0.02 0.01 0.02 0.03 0.07 0.06 0.03 0.03 0.05 0.07 0.11 0.17 0.32 0.31 0.30
0.34 0.25 0.24 0.17 0.15 0.18 0.17 0.12 0.08 0.10 0.13 0.12 0.04 0.04 0.07 0.09 0.13 0.07 0.01 0.02 0.04 0.04 0.04 0.02 0.01 0.01 0.02 0.02 0.04 0.08 0.12 0.10 0.03 0.01 0.01 0.02 0.03 0.12 0.08 0.10 0.20 0.33 0.38
0.28 0.37 0.42 0.39 0.35 0.43 0.38 0.30 0.27 0.18 0.09 0.02 0.01 0.02 0.01 0.01 0.06 0.20 0.22 0.17 0.15 0.07 0.02 0.01 0.01 0.02 0.04 0.07 0.07 0.06 0.05 0.02 0.01 0.02 0.03 0.04 0.05 0.07 0.06 0.06 0.02 0.06 0.26
0.39 0.43 0.56 0.64 0.61 0.53 0.39 0.29 0.30 0.17 0.09 0.04 0.03 0.03 0.03 0.03 0.02 0.05 0.06 0.02 0.01 0.00 0.00 0.00 0.01 0.01 0.01 0.01 0.02 0.02 0.04 0.07 0.06 0.05 0.06 0.06 0.08 0.07 0.06 0.04 0.02 0.02 0.05
0.44 0.45 0.44 0.54 0.60 0.50 0.31 0.22 0.16 0.10 0.03 0.02 0.03 0.04 0.06 0.05 0.03 0.01 0.01 0.01 0.00 0.00 0.00 0.00 0.01 0.01 0.00 0.00 0.01 0.02 0.04 0.07 0.06 0.07 0.11 0.16 0.08 0.04 0.03 0.02 0.00 0.01 0.06
0.35 0.41 0.33 0.41 0.42 0.33 0.26 0.11 0.05 0.04 0.04 0.04 0.02 0.02 0.05 0.04 0.03 0.02 0.02 0.02 0.01 0.00 0.00 0.00 0.00 0.00 0.00 0.00 0.01 0.03 0.05 0.09 0.08 0.11 0.16 0.19 0.06 0.03 0.02 0.02 0.01 0.00 0.08
0.57 0.40 0.53 0.48 0.36 0.28 0.21 0.14 0.08 0.06 0.04 0.04 0.03 0.04 0.05 0.03 0.01 0.01 0.01 0.02 0.05 0.02 0.00 0.00 0.00 0.00 0.01 0.02 0.05 0.04 0.06 0.10 0.08 0.06 0.06 0.06 0.06 0.05 0.05 0.05 0.04 0.04 0.04
0.75 0.59 0.45 0.49 0.51 0.40 0.40 0.22 0.12 0.10 0.05 0.04 0.06 0.07 0.07 0.05 0.04 0.04 0.03 0.01 0.01 0.01 0.01 0.00 0.00 0.00 0.00 0.00 0.01 0.01 0.02 0.06 0.07 0.08 0.08 0.08 0.06 0.05 0.04 0.02 0.01 0.03 0.09
0.65 0.62 0.58 0.47 0.40 0.39 0.33 0.36 0.16 0.09 0.09 0.08 0.06 0.04 0.04 0.06 0.05 0.04 0.01 0.00 0.00 0.01 0.02 0.00 0.01 0.01 0.01 0.01 0.02 0.02 0.02 0.01 0.03 0.06 0.04 0.03 0.02 0.01 0.00 0.00 0.00 0.00 0.03
0.58 0.58 0.54 0.61 0.54 0.45 0.37 0.27 0.20 0.13 0.10 0.08 0.05 0.05 0.06 0.06 0.04 0.03 0.01 0.00 0.00 0.01 0.00 0.00 0.00 0.00 0.00 0.00 0.00 0.01 0.00 0.01 0.01 0.05 0.02 0.02 0.01 0.01 0.01 0.00 0.00 0.00 0.01
0.71 0.61 0.63 0.57 0.48 0.47 0.47 0.40 0.32 0.31 0.27 0.23 0.16 0.12 0.12 0.10 0.07 0.05 0.06 0.06 0.04 0.02 0.01 0.01 0.01 0.01 0.01 0.02 0.02 0.01 0.01 0.02 0.02 0.08 0.03 0.02 0.02 0.01 0.01 0.01 0.01 0.01 0.01
1.01 0.74 0.71 0.66 0.60 0.46 0.41 0.39 0.32 0.29 0.25 0.18 0.14 0.13 0.14 0.12 0.10 0.10 0.08 0.06 0.03 0.02 0.01 0.00 0.01 0.01 0.01 0.01 0.01 0.01 0.01 0.00 0.01 0.02 0.06 0.05 0.04 0.02 0.02 0.01 0.01 0.00 0.00
0.84 0.70 0.78 0.87 0.78 0.71 0.54 0.43 0.34 0.26 0.22 0.22 0.17 0.11 0.09 0.08 0.08 0.06 0.05 0.03 0.01 0.01 0.01 0.01 0.03 0.03 0.03 0.03 0.02 0.02 0.03 0.03 0.03 0.02 0.03 0.03 0.02 0.02 0.02 0.02 0.01 0.00 0.00
0.68 0.72 0.59 0.63 0.73 0.61 0.68 0.70 0.55 0.37 0.28 0.26 0.28 0.22 0.14 0.12 0.13 0.15 0.16 0.14 0.09 0.06 0.04 0.03 0.02 0.01 0.00 0.01 0.01 0.02 0.03 0.02 0.02 0.01 0.01 0.01 0.01 0.01 0.01 0.01 0.05 0.01 0.00
0.47 0.52 0.72 0.54 0.66 0.77 0.74 0.77 0.92 0.85 0.65 0.48 0.39 0.38 0.41 0.44 0.44 0.40 0.37 0.35 0.32 0.29 0.19 0.11 0.06 0.01 0.00 0.00 0.00 0.00 0.01 0.02 0.02 0.01 0.01 0.01 0.00 0.00 0.00 0.01 0.03 0.01 0.00
0.24 0.28 0.39 0.49 0.57 0.66 0.65 0.62 0.76 0.86 0.98 0.98 0.93 0.86 0.75 0.64 0.63 0.65 0.60 0.56 0.50 0.44 0.31 0.19 0.10 0.04 0.02 0.00 0.00 0.00 0.00 0.00 0.00 0.00 0.00 0.01 0.00 0.00 0.00 0.00 0.02 0.01 0.00
0.04 0.05 0.09 0.17 0.23 0.21 0.30 0.31 0.35 0.36 0.45 0.52 0.58 0.62 0.69 0.75 0.79 0.72 0.61 0.54 0.41 0.26 0.19 0.15 0.09 0.06 0.04 0.03 0.02 0.00 0.00 0.00 0.00 0.00 0.00 0.00 0.00 0.00 0.00 0.00 0.00 0.01 0.00
0.01 0.01 0.01 0.03 0.12 0.24 0.30 0.30 0.31 0.30 0.33 0.36 0.37 0.33 0.35 0.32 0.35 0.35 0.31 0.27 0.20 0.16 0.16 0.13 0.10 0.06 0.04 0.04 0.04 0.01 0.00 0.00 0.00 0.00 0.00 0.00 0.00 0.00 0.00 0.00 0.00 0.00 0.00

GFSMA_prec_precacc24_135.txt.gz
Total_Precipitation_Accumulation
0.01 0.01 0.00 0.00 0.00 0.00 0.00 0.00 0.00 0.00 0.00 0.00 0.00 0.00 0.00 0.00 0.00 0.00 0.00 0.00 0.00 0.00 0.00 0.00 0.00 0.00 0.00 0.00 0.00 0.00 0.00 0.00 0.00 0.00 0.00 0.00 0.00 0.00 0.00 0.00 0.00 0.00 0.00
0.00 0.00 0.00 0.00 0.00 0.00 0.00 0.00 0.00 0.00 0.00 0.00 0.00 0.00 0.00 0.00 0.00 0.00 0.00 0.00 0.00 0.00 0.00 0.00 0.00 0.00 0.00 0.00 0.00 0.00 0.00 0.00 0.00 0.00 0.00 0.00 0.00 0.00 0.00 0.00 0.00 0.00 0.00
0.00 0.00 0.00 0.00 0.00 0.00 0.00 0.00 0.00 0.00 0.00 0.00 0.00 0.00 0.00 0.00 0.00 0.00 0.00 0.00 0.00 0.00 0.00 0.01 0.04 0.02 0.02 0.05 0.11 0.09 0.04 0.01 0.00 0.00 0.00 0.00 0.00 0.00 0.00 0.00 0.00 0.00 0.00
0.00 0.00 0.00 0.00 0.00 0.00 0.00 0.00 0.00 0.00 0.00 0.00 0.00 0.00 0.00 0.00 0.00 0.00 0.00 0.00 0.00 0.00 0.00 0.00 0.04 0.14 0.23 0.28 0.41 0.58 0.51 0.35 0.19 0.10 0.05 0.01 0.00 0.00 0.00 0.00 0.00 0.00 0.00
0.02 0.00 0.00 0.00 0.00 0.00 0.00 0.00 0.00 0.00 0.00 0.00 0.00 0.00 0.00 0.00 0.00 0.00 0.00 0.00 0.00 0.00 0.00 0.00 0.00 0.03 0.10 0.18 0.24 0.33 0.52 0.33 0.29 0.29 0.21 0.13 0.08 0.04 0.03 0.01 0.00 0.00 0.00
0.06 0.01 0.00 0.01 0.00 0.00 0.00 0.00 0.00 0.00 0.00 0.00 0.00 0.00 0.00 0.00 0.00 0.00 0.00 0.00 0.00 0.00 0.00 0.00 0.00 0.00 0.00 0.00 0.05 0.16 0.24 0.20 0.09 0.12 0.11 0.13 0.13 0.11 0.09 0.05 0.03 0.03 0.00
0.13 0.09 0.07 0.04 0.01 0.00 0.00 0.00 0.00 0.00 0.00 0.00 0.00 0.00 0.00 0.00 0.00 0.00 0.00 0.00 0.00 0.00 0.00 0.00 0.03 0.05 0.03 0.04 0.02 0.03 0.08 0.06 0.01 0.04 0.06 0.14 0.13 0.18 0.16 0.13 0.16 0.12 0.05
0.15 0.14 0.12 0.10 0.04 0.01 0.00 0.00 0.00 0.00 0.00 0.00 0.00 0.00 0.00 0.00 0.00 0.00 0.00 0.00 0.00 0.00 0.00 0.00 0.02 0.05 0.05 0.04 0.03 0.02 0.01 0.00 0.01 0.03 0.04 0.06 0.12 0.09 0.18 0.17 0.20 0.16 0.15
0.21 0.18 0.13 0.11 0.09 0.04 0.01 0.01 0.01 0.01 0.01 0.00 0.00 0.00 0.01 0.02 0.02 0.00 0.00 0.00 0.00 0.00 0.00 0.00 0.00 0.01 0.01 0.01 0.01 0.01 0.02 0.03 0.07 0.06 0.03 0.04 0.05 0.07 0.10 0.13 0.24 0.27 0.30
0.32 0.24 0.19 0.13 0.10 0.09 0.06 0.04 0.03 0.06 0.08 0.08 0.02 0.00 0.01 0.02 0.04 0.02 0.00 0.00 0.00 0.02 0.02 0.01 0.00 0.00 0.01 0.00 0.03 0.08 0.12 0.10 0.03 0.01 0.01 0.02 0.03 0.12 0.09 0.10 0.15 0.18 0.30
0.20 0.28 0.34 0.28 0.20 0.16 0.14 0.11 0.10 0.04 0.04 0.01 0.00 0.01 0.00 0.00 0.01 0.02 0.03 0.04 0.05 0.03 0.01 0.00 0.00 0.00 0.00 0.00 0.02 0.05 0.05 0.02 0.01 0.02 0.03 0.04 0.06 0.07 0.07 0.08 0.03 0.02 0.11
0.19 0.23 0.30 0.38 0.42 0.34 0.23 0.19 0.19 0.09 0.01 0.00 0.01 0.03 0.03 0.02 0.01 0.01 0.01 0.00 0.00 0.00 0.00 0.00 0.00 0.00 0.00 0.00 0.00 0.01 0.04 0.07 0.06 0.05 0.06 0.06 0.08 0.06 0.05 0.05 0.02 0.01 0.01
0.18 0.25 0.28 0.35 0.46 0.45 0.31 0.27 0.20 0.12 0.04 0.02 0.02 0.04 0.05 0.04 0.02 0.00 0.01 0.01 0.00 0.00 0.00 0.00 0.00 0.00 0.00 0.00 0.00 0.00 0.03 0.07 0.06 0.07 0.10 0.16 0.08 0.05 0.03 0.03 0.01 0.00 0.02
0.17 0.29 0.30 0.38 0.41 0.33 0.26 0.13 0.08 0.07 0.05 0.04 0.02 0.02 0.05 0.04 0.02 0.02 0.01 0.01 0.01 0.00 0.00 0.00 0.00 0.00 0.00 0.00 0.00 0.01 0.03 0.07 0.07 0.11 0.16 0.20 0.06 0.03 0.02 0.02 0.01 0.00 0.01
0.53 0.40 0.53 0.49 0.36 0.28 0.22 0.15 0.09 0.07 0.05 0.05 0.04 0.05 0.05 0.03 0.01 0.01 0.01 0.01 0.02 0.00 0.00 0.00 0.00 0.00 0.00 0.00 0.01 0.02 0.04 0.07 0.08 0.06 0.06 0.06 0.06 0.05 0.05 0.05 0.03 0.01 0.01
0.75 0.59 0.46 0.51 0.53 0.42 0.41 0.22 0.12 0.10 0.06 0.04 0.06 0.09 0.09 0.06 0.04 0.05 0.06 0.04 0.03 0.04 0.01 0.00 0.00 0.00 0.00 0.00 0.00 0.00 0.00 0.02 0.05 0.08 0.08 0.09 0.06 0.05 0.04 0.02 0.01 0.01 0.06
0.65 0.63 0.58 0.47 0.41 0.41 0.34 0.39 0.17 0.10 0.10 0.09 0.07 0.06 0.05 0.09 0.07 0.07 0.06 0.06 0.06 0.07 0.05 0.02 0.01 0.00 0.00 0.00 0.00 0.00 0.01 0.01 0.02 0.06 0.04 0.03 0.02 0.01 0.00 0.00 0.00 0.00 0.02
0.59 0.59 0.54 0.61 0.54 0.46 0.40 0.36 0.28 0.16 0.12 0.09 0.09 0.08 0.08 0.08 0.06 0.06 0.06 0.07 0.08 0.08 0.04 0.03 0.01 0.00 0.00 0.00 0.00 0.00 0.00 0.00 0.01 0.04 0.02 0.02 0.01 0.01 0.01 0.00 0.00 0.00 0.01
0.73 0.62 0.64 0.59 0.50 0.53 0.51 0.46 0.40 0.40 0.35 0.28 0.22 0.18 0.18 0.18 0.13 0.14 0.17 0.18 0.18 0.14 0.08 0.05 0.03 0.02 0.01 0.00 0.01 0.00 0.00 0.01 0.02 0.07 0.03 0.02 0.02 0.01 0.01 0.01 0.01 0.01 0.01
1.13 0.80 0.76 0.81 0.88 0.74 0.66 0.65 0.55 0.46 0.40 0.33 0.28 0.27 0.28 0.25 0.20 0.20 0.21 0.16 0.14 0.11 0.09 0.06 0.04 0.02 0.01 0.00 0.01 0.00 0.00 0.00 0.01 0.02 0.06 0.05 0.04 0.02 0.02 0.02 0.01 0.00 0.00
1.15 1.03 0.92 0.98 0.96 1.08 1.07 1.00 0.86 0.72 0.60 0.47 0.36 0.24 0.18 0.16 0.16 0.15 0.13 0.08 0.06 0.06 0.07 0.07 0.07 0.06 0.05 0.02 0.02 0.03 0.04 0.03 0.02 0.02 0.03 0.03 0.02 0.02 0.02 0.02 0.01 0.00 0.00
0.97 1.20 0.94 0.81 0.83 0.74 0.89 1.05 0.93 0.69 0.56 0.52 0.43 0.28 0.19 0.20 0.21 0.24 0.25 0.21 0.15 0.13 0.11 0.08 0.06 0.04 0.03 0.03 0.04 0.06 0.05 0.03 0.02 0.01 0.01 0.01 0.01 0.01 0.01 0.01 0.06 0.02 0.00
0.69 0.69 0.90 0.72 0.77 0.86 0.90 0.95 1.15 1.09 0.88 0.69 0.57 0.52 0.52 0.50 0.50 0.46 0.44 0.43 0.42 0.43 0.38 0.28 0.23 0.16 0.11 0.09 0.10 0.07 0.03 0.02 0.02 0.01 0.01 0.01 0.00 0.00 0.00 0.01 0.04 0.01 0.00
0.36 0.34 0.46 0.65 0.65 0.78 0.78 0.77 0.91 0.98 1.09 1.09 1.04 0.97 0.85 0.74 0.73 0.78 0.72 0.69 0.66 0.64 0.58 0.51 0.45 0.39 0.33 0.26 0.16 0.06 0.03 0.01 0.00 0.00 0.00 0.01 0.00 0.00 0.00 0.00 0.02 0.01 0.01
0.06 0.05 0.10 0.18 0.25 0.27 0.38 0.36 0.40 0.40 0.48 0.58 0.68 0.75 0.83 0.87 0.92 0.88 0.78 0.79 0.76 0.72 0.72 0.67 0.55 0.46 0.38 0.29 0.20 0.14 0.10 0.06 0.03 0.00 0.00 0.00 0.00 0.00 0.00 0.00 0.00 0.01 0.00
0.01 0.01 0.01 0.03 0.12 0.24 0.31 0.31 0.32 0.30 0.33 0.38 0.40 0.37 0.42 0.42 0.49 0.50 0.48 0.51 0.53 0.53 0.50 0.47 0.45 0.41 0.38 0.34 0.27 0.19 0.15 0.10 0.06 0.02 0.00 0.00 0.00 0.00 0.00 0.00 0.00 0.00 0.00

GFSMA_prec_precacc24_138.txt.gz
Total_Precipitation_Accumulation
0.01 0.01 0.00 0.00 0.00 0.00 0.00 0.00 0.00 0.00 0.00 0.00 0.00 0.00 0.00 0.00 0.00 0.00 0.00 0.00 0.00 0.00 0.00 0.00 0.00 0.00 0.00 0.00 0.00 0.00 0.00 0.00 0.00 0.00 0.00 0.00 0.00 0.00 0.00 0.00 0.00 0.00 0.00
0.00 0.00 0.00 0.00 0.00 0.00 0.00 0.00 0.00 0.00 0.00 0.00 0.00 0.00 0.00 0.00 0.00 0.00 0.00 0.00 0.00 0.00 0.00 0.00 0.00 0.00 0.00 0.00 0.00 0.00 0.00 0.00 0.00 0.00 0.00 0.00 0.00 0.00 0.00 0.00 0.00 0.00 0.00
0.00 0.00 0.00 0.00 0.00 0.00 0.00 0.00 0.00 0.00 0.00 0.00 0.00 0.00 0.00 0.00 0.00 0.00 0.00 0.00 0.00 0.00 0.00 0.00 0.02 0.02 0.03 0.09 0.18 0.14 0.05 0.01 0.00 0.00 0.00 0.00 0.00 0.00 0.00 0.00 0.00 0.00 0.00
0.00 0.00 0.00 0.00 0.00 0.00 0.00 0.00 0.00 0.00 0.00 0.00 0.00 0.00 0.00 0.00 0.00 0.00 0.00 0.00 0.00 0.00 0.00 0.00 0.04 0.14 0.24 0.29 0.41 0.59 0.52 0.35 0.20 0.10 0.05 0.01 0.00 0.00 0.00 0.00 0.00 0.00 0.00
0.03 0.00 0.00 0.00 0.00 0.00 0.00 0.00 0.00 0.00 0.00 0.00 0.00 0.00 0.00 0.00 0.00 0.00 0.00 0.00 0.00 0.00 0.00 0.00 0.00 0.03 0.10 0.17 0.22 0.33 0.52 0.33 0.29 0.29 0.21 0.13 0.08 0.04 0.03 0.01 0.00 0.00 0.00
0.07 0.02 0.00 0.01 0.00 0.00 0.00 0.00 0.00 0.00 0.00 0.00 0.00 0.00 0.00 0.00 0.00 0.00 0.00 0.00 0.00 0.00 0.00 0.00 0.00 0.00 0.00 0.00 0.05 0.15 0.24 0.20 0.08 0.10 0.11 0.13 0.13 0.11 0.09 0.05 0.03 0.03 0.00
0.14 0.10 0.07 0.05 0.02 0.00 0.00 0.00 0.00 0.00 0.00 0.00 0.00 0.00 0.00 0.00 0.00 0.00 0.00 0.00 0.00 0.00 0.00 0.00 0.02 0.04 0.02 0.04 0.02 0.03 0.08 0.07 0.01 0.03 0.05 0.10 0.11 0.14 0.16 0.13 0.16 0.12 0.05
0.17 0.15 0.13 0.11 0.06 0.01 0.00 0.00 0.00 0.00 0.00 0.00 0.00 0.00 0.00 0.00 0.00 0.00 0.00 0.00 0.00 0.00 0.00 0.00 0.01 0.02 0.01 0.03 0.02 0.02 0.01 0.01 0.01 0.03 0.04 0.06 0.10 0.06 0.13 0.14 0.19 0.16 0.15
0.23 0.19 0.14 0.13 0.11 0.05 0.01 0.00 0.00 0.00 0.00 0.00 0.00 0.00 0.00 0.02 0.02 0.00 0.00 0.00 0.00 0.00 0.00 0.00 0.00 0.00 0.00 0.00 0.01 0.01 0.02 0.03 0.07 0.06 0.03 0.04 0.05 0.07 0.09 0.10 0.19 0.22 0.27
0.34 0.24 0.19 0.14 0.12 0.10 0.04 0.01 0.00 0.02 0.07 0.07 0.01 0.00 0.00 0.01 0.02 0.01 0.00 0.00 0.00 0.00 0.00 0.00 0.00 0.00 0.00 0.00 0.01 0.01 0.08 0.09 0.03 0.01 0.01 0.02 0.03 0.13 0.09 0.10 0.14 0.12 0.19
0.20 0.26 0.33 0.27 0.15 0.11 0.10 0.06 0.04 0.02 0.02 0.00 0.00 0.01 0.00 0.00 0.01 0.00 0.00 0.00 0.00 0.00 0.00 0.00 0.00 0.00 0.00 0.00 0.00 0.00 0.01 0.01 0.01 0.02 0.03 0.04 0.06 0.08 0.07 0.09 0.05 0.02 0.03
0.14 0.18 0.26 0.32 0.29 0.24 0.20 0.19 0.20 0.09 0.02 0.00 0.00 0.02 0.02 0.02 0.01 0.00 0.00 0.00 0.00 0.00 0.00 0.00 0.00 0.00 0.00 0.00 0.00 0.00 0.00 0.00 0.02 0.05 0.06 0.06 0.08 0.05 0.05 0.05 0.03 0.01 0.00
0.16 0.17 0.19 0.20 0.19 0.17 0.22 0.26 0.22 0.13 0.05 0.02 0.02 0.02 0.04 0.04 0.02 0.00 0.00 0.00 0.00 0.00 0.00 0.00 0.00 0.00 0.00 0.00 0.00 0.00 0.00 0.00 0.01 0.06 0.08 0.15 0.08 0.04 0.03 0.03 0.02 0.00 0.00
0.06 0.09 0.13 0.16 0.24 0.18 0.22 0.13 0.08 0.07 0.05 0.04 0.03 0.02 0.05 0.04 0.02 0.01 0.00 0.00 0.00 0.00 0.00 0.00 0.00 0.00 0.00 0.00 0.00 0.00 0.00 0.00 0.02 0.09 0.16 0.20 0.06 0.03 0.02 0.02 0.01 0.00 0.00
0.18 0.11 0.21 0.36 0.27 0.26 0.21 0.15 0.10 0.07 0.05 0.06 0.05 0.06 0.05 0.03 0.01 0.01 0.00 0.00 0.02 0.01 0.00 0.00 0.00 0.00 0.00 0.00 0.00 0.00 0.00 0.01 0.03 0.05 0.05 0.06 0.06 0.05 0.05 0.05 0.03 0.01 0.00
0.50 0.43 0.35 0.42 0.50 0.43 0.42 0.23 0.12 0.10 0.06 0.05 0.07 0.09 0.09 0.06 0.04 0.05 0.06 0.04 0.04 0.06 0.03 0.02 0.04 0.03 0.02 0.00 0.00 0.00 0.00 0.01 0.02 0.04 0.04 0.07 0.06 0.05 0.04 0.02 0.01 0.00 0.01
0.58 0.62 0.58 0.47 0.43 0.43 0.35 0.40 0.18 0.11 0.10 0.09 0.07 0.06 0.06 0.09 0.08 0.08 0.07 0.07 0.07 0.10 0.11 0.10 0.06 0.04 0.02 0.01 0.00 0.00 0.00 0.00 0.01 0.04 0.03 0.03 0.02 0.01 0.00 0.00 0.00 0.00 0.01
0.58 0.62 0.57 0.63 0.55 0.47 0.41 0.37 0.29 0.17 0.12 0.09 0.09 0.08 0.08 0.08 0.07 0.08 0.10 0.11 0.13 0.16 0.17 0.11 0.06 0.04 0.02 0.01 0.01 0.00 0.00 0.00 0.00 0.04 0.02 0.02 0.01 0.01 0.01 0.00 0.00 0.00 0.01
0.73 0.62 0.64 0.60 0.51 0.54 0.52 0.46 0.41 0.42 0.36 0.29 0.22 0.18 0.18 0.20 0.17 0.20 0.25 0.27 0.30 0.29 0.22 0.16 0.09 0.05 0.03 0.02 0.02 0.02 0.02 0.01 0.01 0.05 0.02 0.02 0.02 0.01 0.01 0.01 0.01 0.01 0.01
1.13 0.81 0.76 0.81 0.88 0.74 0.67 0.65 0.56 0.46 0.41 0.35 0.29 0.29 0.31 0.29 0.27 0.29 0.32 0.28 0.30 0.23 0.18 0.15 0.11 0.07 0.06 0.05 0.07 0.07 0.05 0.04 0.04 0.04 0.05 0.04 0.04 0.02 0.02 0.02 0.02 0.00 0.00
1.19 1.06 0.96 1.02 1.00 1.12 1.10 1.04 0.91 0.76 0.67 0.54 0.46 0.39 0.32 0.31 0.30 0.30 0.31 0.24 0.20 0.18 0.16 0.15 0.13 0.11 0.09 0.09 0.09 0.10 0.13 0.12 0.09 0.06 0.03 0.03 0.02 0.02 0.02 0.02 0.01 0.01 0.00
1.03 1.33 1.06 0.94 0.95 0.88 1.08 1.21 1.15 0.98 0.97 0.99 0.86 0.67 0.54 0.52 0.47 0.50 0.52 0.44 0.36 0.31 0.25 0.19 0.15 0.11 0.06 0.05 0.08 0.13 0.16 0.15 0.12 0.05 0.02 0.03 0.02 0.01 0.01 0.01 0.06 0.02 0.00
1.11 1.29 1.28 1.03 1.12 1.11 1.08 1.09 1.30 1.26 1.07 0.95 0.88 0.82 0.81 0.78 0.76 0.72 0.69 0.68 0.70 0.76 0.69 0.58 0.47 0.32 0.22 0.19 0.22 0.33 0.33 0.26 0.19 0.08 0.06 0.05 0.01 0.01 0.00 0.01 0.04 0.01 0.01
0.79 0.66 0.75 0.90 0.91 0.99 0.97 0.87 0.99 1.08 1.24 1.27 1.26 1.22 1.10 1.00 0.99 1.02 0.95 0.91 0.87 0.87 0.83 0.80 0.79 0.70 0.61 0.51 0.41 0.35 0.31 0.29 0.24 0.14 0.06 0.03 0.01 0.01 0.00 0.00 0.02 0.01 0.01
0.15 0.12 0.17 0.24 0.32 0.32 0.46 0.43 0.46 0.45 0.54 0.63 0.74 0.81 0.89 0.94 0.99 0.94 0.83 0.84 0.83 0.81 0.85 0.82 0.72 0.66 0.62 0.57 0.48 0.43 0.39 0.32 0.26 0.17 0.11 0.09 0.05 0.03 0.00 0.00 0.00 0.01 0.00
0.02 0.01 0.01 0.03 0.12 0.24 0.32 0.32 0.32 0.30 0.33 0.38 0.40 0.37 0.42 0.42 0.49 0.51 0.49 0.52 0.55 0.54 0.53 0.51 0.51 0.49 0.48 0.48 0.46 0.42 0.41 0.38 0.35 0.29 0.23 0.20 0.12 0.07 0.01 0.00 0.00 0.00 0.00

GFSMA_prec_precacc24_141.txt.gz
Total_Precipitation_Accumulation
0.03 0.06 0.02 0.00 0.00 0.00 0.00 0.00 0.00 0.00 0.00 0.00 0.00 0.00 0.00 0.00 0.00 0.00 0.00 0.00 0.00 0.00 0.00 0.00 0.00 0.00 0.00 0.00 0.00 0.00 0.00 0.00 0.00 0.00 0.00 0.00 0.00 0.00 0.00 0.00 0.00 0.00 0.00
0.01 0.01 0.00 0.00 0.00 0.00 0.00 0.00 0.00 0.00 0.00 0.00 0.00 0.00 0.00 0.00 0.00 0.00 0.00 0.00 0.00 0.00 0.00 0.00 0.00 0.00 0.00 0.00 0.00 0.00 0.00 0.00 0.00 0.00 0.00 0.00 0.00 0.00 0.00 0.00 0.00 0.00 0.00
0.06 0.01 0.00 0.00 0.00 0.00 0.00 0.00 0.00 0.00 0.00 0.00 0.00 0.00 0.00 0.00 0.00 0.00 0.00 0.00 0.00 0.00 0.00 0.00 0.02 0.02 0.03 0.10 0.22 0.16 0.06 0.01 0.00 0.00 0.00 0.00 0.00 0.00 0.00 0.00 0.00 0.00 0.00
0.06 0.03 0.00 0.00 0.00 0.00 0.00 0.00 0.00 0.00 0.00 0.00 0.00 0.00 0.00 0.00 0.00 0.00 0.00 0.00 0.00 0.00 0.00 0.00 0.04 0.13 0.23 0.30 0.41 0.59 0.52 0.35 0.20 0.11 0.05 0.01 0.00 0.00 0.00 0.00 0.00 0.00 0.00
0.04 0.04 0.00 0.01 0.00 0.00 0.00 0.00 0.00 0.00 0.00 0.00 0.00 0.00 0.00 0.00 0.00 0.00 0.00 0.00 0.00 0.00 0.00 0.00 0.00 0.03 0.09 0.16 0.20 0.31 0.50 0.32 0.27 0.29 0.22 0.14 0.09 0.05 0.03 0.01 0.00 0.00 0.00
0.10 0.06 0.04 0.02 0.03 0.00 0.00 0.00 0.00 0.00 0.00 0.00 0.00 0.00 0.00 0.00 0.00 0.00 0.00 0.00 0.00 0.00 0.00 0.00 0.00 0.00 0.00 0.00 0.04 0.10 0.22 0.20 0.06 0.06 0.08 0.12 0.12 0.11 0.09 0.05 0.03 0.03 0.00
0.17 0.14 0.09 0.06 0.04 0.00 0.00 0.00 0.00 0.00 0.00 0.00 0.00 0.00 0.00 0.00 0.00 0.00 0.00 0.00 0.00 0.00 0.00 0.00 0.01 0.03 0.02 0.04 0.02 0.02 0.08 0.07 0.01 0.03 0.03 0.05 0.07 0.10 0.13 0.13 0.16 0.12 0.05
0.20 0.16 0.14 0.13 0.07 0.01 0.00 0.00 0.00 0.00 0.00 0.00 0.00 0.00 0.00 0.00 0.00 0.00 0.00 0.00 0.00 0.00 0.00 0.00 0.00 0.02 0.01 0.01 0.01 0.01 0.01 0.00 0.02 0.03 0.04 0.05 0.08 0.03 0.06 0.09 0.16 0.16 0.15
0.26 0.22 0.16 0.15 0.15 0.07 0.03 0.00 0.00 0.00 0.00 0.00 0.00 0.00 0.00 0.01 0.01 0.00 0.00 0.00 0.00 0.00 0.00 0.00 0.00 0.00 0.00 0.00 0.00 0.00 0.00 0.00 0.03 0.06 0.03 0.03 0.05 0.07 0.07 0.05 0.11 0.16 0.21
0.35 0.27 0.22 0.16 0.13 0.12 0.06 0.02 0.00 0.01 0.02 0.05 0.01 0.00 0.00 0.01 0.00 0.00 0.00 0.00 0.00 0.00 0.00 0.00 0.00 0.00 0.00 0.00 0.00 0.00 0.00 0.00 0.00 0.00 0.01 0.02 0.03 0.13 0.10 0.09 0.12 0.09 0.12
0.21 0.29 0.35 0.29 0.16 0.12 0.11 0.07 0.02 0.00 0.01 0.00 0.00 0.00 0.00 0.00 0.00 0.00 0.00 0.00 0.00 0.00 0.00 0.00 0.00 0.00 0.00 0.00 0.00 0.00 0.00 0.00 0.00 0.00 0.02 0.04 0.06 0.08 0.07 0.09 0.05 0.03 0.02
0.13 0.19 0.29 0.36 0.31 0.23 0.16 0.15 0.11 0.07 0.03 0.01 0.00 0.01 0.01 0.01 0.01 0.00 0.00 0.00 0.00 0.00 0.00 0.00 0.00 0.00 0.00 0.00 0.00 0.00 0.00 0.00 0.00 0.00 0.01 0.04 0.07 0.05 0.05 0.05 0.03 0.02 0.01
0.16 0.16 0.20 0.24 0.21 0.14 0.13 0.15 0.15 0.13 0.06 0.03 0.01 0.01 0.02 0.03 0.01 0.00 0.00 0.00 0.00 0.00 0.00 0.00 0.00 0.00 0.00 0.00 0.00 0.00 0.00 0.00 0.00 0.01 0.01 0.05 0.06 0.04 0.03 0.03 0.02 0.01 0.00
0.06 0.09 0.16 0.16 0.14 0.10 0.06 0.05 0.06 0.07 0.06 0.06 0.04 0.03 0.05 0.04 0.02 0.01 0.00 0.00 0.00 0.00 0.00 0.00 0.00 0.00 0.00 0.00 0.00 0.00 0.00 0.00 0.01 0.02 0.03 0.08 0.04 0.03 0.02 0.02 0.01 0.00 0.00
0.08 0.09 0.18 0.28 0.19 0.11 0.09 0.09 0.08 0.09 0.07 0.06 0.05 0.07 0.08 0.04 0.02 0.01 0.01 0.00 0.01 0.01 0.00 0.00 0.00 0.00 0.01 0.01 0.00 0.00 0.00 0.01 0.01 0.03 0.05 0.05 0.04 0.03 0.03 0.05 0.03 0.01 0.00
0.24 0.16 0.17 0.28 0.38 0.22 0.14 0.21 0.16 0.13 0.08 0.07 0.07 0.09 0.10 0.07 0.06 0.06 0.07 0.04 0.04 0.07 0.04 0.02 0.04 0.04 0.04 0.02 0.02 0.01 0.01 0.01 0.01 0.02 0.03 0.04 0.03 0.03 0.02 0.02 0.01 0.00 0.00
0.39 0.37 0.34 0.31 0.33 0.39 0.31 0.41 0.23 0.14 0.11 0.10 0.07 0.06 0.06 0.10 0.09 0.10 0.08 0.08 0.08 0.11 0.12 0.11 0.08 0.05 0.05 0.02 0.02 0.01 0.01 0.00 0.01 0.02 0.02 0.02 0.01 0.01 0.00 0.00 0.00 0.00 0.00
0.46 0.50 0.46 0.55 0.52 0.51 0.50 0.42 0.31 0.19 0.14 0.10 0.09 0.09 0.08 0.09 0.08 0.08 0.10 0.11 0.14 0.17 0.17 0.14 0.12 0.08 0.05 0.03 0.03 0.02 0.02 0.01 0.01 0.03 0.02 0.01 0.01 0.01 0.01 0.00 0.00 0.00 0.00
0.65 0.56 0.60 0.56 0.51 0.60 0.62 0.54 0.45 0.43 0.38 0.30 0.23 0.19 0.19 0.21 0.17 0.20 0.26 0.28 0.31 0.31 0.25 0.20 0.16 0.08 0.05 0.04 0.05 0.05 0.03 0.02 0.02 0.03 0.02 0.02 0.02 0.01 0.01 0.00 0.00 0.00 0.01
1.07 0.78 0.75 0.81 0.88 0.74 0.69 0.70 0.62 0.49 0.42 0.35 0.30 0.30 0.31 0.30 0.28 0.30 0.34 0.30 0.32 0.29 0.25 0.22 0.18 0.12 0.08 0.06 0.11 0.13 0.11 0.09 0.10 0.14 0.14 0.10 0.06 0.03 0.02 0.01 0.01 0.00 0.00
1.19 1.09 0.98 1.03 1.01 1.12 1.10 1.05 0.92 0.78 0.67 0.54 0.47 0.40 0.35 0.40 0.42 0.44 0.44 0.36 0.34 0.33 0.34 0.30 0.26 0.23 0.16 0.14 0.14 0.16 0.24 0.24 0.22 0.17 0.14 0.12 0.07 0.04 0.03 0.03 0.01 0.01 0.00
1.18 1.45 1.12 0.99 0.97 0.90 1.10 1.23 1.17 1.00 1.00 1.03 0.93 0.77 0.67 0.74 0.66 0.69 0.68 0.63 0.59 0.59 0.56 0.51 0.40 0.31 0.20 0.14 0.15 0.25 0.32 0.38 0.34 0.16 0.10 0.14 0.11 0.07 0.03 0.02 0.06 0.02 0.00
1.21 1.40 1.32 1.05 1.15 1.21 1.20 1.18 1.41 1.33 1.14 1.04 0.94 0.86 0.86 0.89 0.91 0.86 0.86 0.87 0.89 0.97 0.93 0.83 0.73 0.52 0.40 0.32 0.37 0.49 0.49 0.43 0.35 0.22 0.17 0.20 0.12 0.07 0.04 0.04 0.06 0.02 0.01
1.17 1.16 1.01 1.14 1.14 1.33 1.27 1.05 1.19 1.22 1.31 1.31 1.29 1.27 1.18 1.08 1.07 1.10 1.02 0.98 0.95 0.94 0.91 0.88 0.91 0.84 0.76 0.67 0.62 0.54 0.44 0.42 0.39 0.26 0.18 0.16 0.09 0.06 0.05 0.05 0.08 0.04 0.02
0.52 0.55 0.45 0.51 0.59 0.53 0.64 0.57 0.55 0.48 0.57 0.66 0.76 0.82 0.91 0.95 1.02 0.97 0.84 0.85 0.83 0.82 0.86 0.82 0.72 0.66 0.63 0.58 0.50 0.46 0.42 0.36 0.31 0.24 0.19 0.18 0.13 0.12 0.11 0.09 0.06 0.06 0.05
0.23 0.18 0.13 0.10 0.20 0.28 0.35 0.34 0.33 0.31 0.33 0.38 0.40 0.37 0.42 0.42 0.49 0.51 0.49 0.52 0.55 0.54 0.53 0.51 0.51 0.49 0.48 0.48 0.46 0.43 0.41 0.39 0.35 0.31 0.27 0.27 0.19 0.20 0.20 0.12 0.07 0.05 0.04

GFSMA_prec_precacc24_144.txt.gz
Total_Precipitation_Accumulation
0.06 0.07 0.04 0.01 0.00 0.00 0.00 0.00 0.00 0.00 0.00 0.00 0.00 0.00 0.00 0.00 0.00 0.00 0.00 0.00 0.00 0.00 0.00 0.00 0.00 0.00 0.00 0.00 0.00 0.00 0.00 0.00 0.00 0.00 0.00 0.00 0.00 0.00 0.00 0.00 0.00 0.00 0.00
0.02 0.03 0.00 0.00 0.00 0.00 0.00 0.00 0.00 0.00 0.00 0.00 0.00 0.00 0.00 0.00 0.00 0.00 0.00 0.00 0.00 0.00 0.00 0.00 0.00 0.00 0.00 0.00 0.00 0.00 0.00 0.00 0.00 0.00 0.00 0.00 0.00 0.00 0.00 0.00 0.00 0.00 0.00
0.06 0.03 0.02 0.00 0.00 0.00 0.00 0.00 0.00 0.00 0.00 0.00 0.00 0.00 0.00 0.00 0.00 0.00 0.00 0.00 0.00 0.00 0.00 0.00 0.01 0.02 0.03 0.10 0.23 0.19 0.07 0.01 0.00 0.00 0.00 0.00 0.00 0.00 0.00 0.00 0.01 0.00 0.00
0.06 0.06 0.03 0.00 0.00 0.00 0.00 0.00 0.00 0.00 0.00 0.00 0.00 0.00 0.00 0.00 0.00 0.00 0.00 0.00 0.00 0.00 0.00 0.00 0.02 0.09 0.21 0.29 0.40 0.58 0.51 0.34 0.20 0.11 0.05 0.01 0.00 0.01 0.01 0.01 0.00 0.00 0.01
0.05 0.05 0.04 0.02 0.01 0.00 0.00 0.00 0.00 0.00 0.00 0.00 0.00 0.00 0.00 0.00 0.00 0.00 0.00 0.00 0.00 0.00 0.00 0.00 0.00 0.02 0.07 0.11 0.11 0.23 0.39 0.21 0.21 0.25 0.20 0.14 0.10 0.05 0.03 0.01 0.00 0.00 0.00
0.16 0.12 0.07 0.05 0.08 0.01 0.00 0.00 0.00 0.00 0.00 0.00 0.00 0.00 0.00 0.00 0.00 0.00 0.00 0.00 0.00 0.00 0.00 0.00 0.00 0.00 0.00 0.00 0.01 0.05 0.18 0.17 0.05 0.02 0.02 0.06 0.09 0.09 0.09 0.05 0.03 0.03 0.01
0.22 0.20 0.13 0.08 0.10 0.03 0.00 0.00 0.00 0.00 0.00 0.00 0.00 0.00 0.00 0.00 0.00 0.00 0.00 0.00 0.00 0.00 0.00 0.00 0.00 0.00 0.00 0.00 0.01 0.01 0.06 0.06 0.01 0.03 0.03 0.03 0.02 0.02 0.05 0.10 0.16 0.12 0.05
0.22 0.18 0.15 0.14 0.09 0.03 0.01 0.00 0.00 0.00 0.00 0.00 0.00 0.00 0.00 0.00 0.00 0.00 0.00 0.00 0.00 0.00 0.00 0.00 0.00 0.00 0.00 0.00 0.00 0.00 0.00 0.00 0.01 0.03 0.03 0.04 0.06 0.01 0.00 0.02 0.08 0.13 0.13
0.26 0.24 0.18 0.16 0.16 0.10 0.04 0.01 0.00 0.00 0.00 0.00 0.00 0.00 0.00 0.00 0.00 0.00 0.00 0.00 0.00 0.00 0.00 0.00 0.00 0.00 0.00 0.00 0.00 0.00 0.00 0.00 0.00 0.01 0.01 0.03 0.04 0.07 0.07 0.03 0.05 0.09 0.13
0.35 0.28 0.28 0.23 0.16 0.16 0.10 0.04 0.01 0.00 0.00 0.00 0.00 0.00 0.00 0.00 0.00 0.00 0.00 0.00 0.00 0.00 0.00 0.00 0.00 0.00 0.00 0.00 0.00 0.00 0.00 0.00 0.00 0.00 0.01 0.02 0.03 0.13 0.10 0.10 0.12 0.07 0.06
0.21 0.29 0.36 0.33 0.22 0.15 0.15 0.12 0.08 0.03 0.00 0.00 0.00 0.00 0.00 0.00 0.00 0.00 0.00 0.00 0.00 0.00 0.00 0.00 0.00 0.00 0.00 0.00 0.00 0.00 0.00 0.00 0.00 0.00 0.01 0.02 0.06 0.08 0.07 0.09 0.05 0.03 0.02
0.12 0.19 0.31 0.38 0.35 0.29 0.22 0.20 0.17 0.12 0.05 0.02 0.00 0.00 0.00 0.00 0.00 0.00 0.00 0.00 0.00 0.00 0.00 0.00 0.00 0.00 0.00 0.00 0.00 0.00 0.00 0.00 0.00 0.00 0.01 0.03 0.06 0.05 0.05 0.05 0.03 0.01 0.01
0.16 0.16 0.20 0.26 0.24 0.18 0.17 0.20 0.22 0.18 0.12 0.05 0.02 0.01 0.01 0.01 0.00 0.00 0.00 0.00 0.00 0.00 0.00 0.00 0.00 0.00 0.00 0.00 0.00 0.00 0.00 0.00 0.00 0.01 0.01 0.03 0.04 0.04 0.03 0.03 0.02 0.01 0.01
0.06 0.09 0.15 0.17 0.16 0.17 0.15 0.13 0.12 0.13 0.14 0.13 0.08 0.06 0.06 0.05 0.03 0.03 0.03 0.03 0.05 0.03 0.00 0.00 0.00 0.00 0.00 0.00 0.00 0.00 0.00 0.00 0.01 0.02 0.02 0.04 0.02 0.02 0.01 0.01 0.01 0.00 0.00
0.05 0.08 0.18 0.26 0.19 0.18 0.19 0.18 0.15 0.17 0.16 0.13 0.12 0.15 0.15 0.11 0.14 0.13 0.11 0.13 0.14 0.10 0.03 0.00 0.00 0.00 0.01 0.01 0.00 0.00 0.00 0.00 0.00 0.01 0.02 0.03 0.03 0.02 0.02 0.02 0.02 0.00 0.00
0.20 0.13 0.15 0.26 0.38 0.26 0.20 0.22 0.18 0.15 0.17 0.16 0.16 0.16 0.16 0.12 0.13 0.16 0.18 0.16 0.17 0.20 0.12 0.02 0.04 0.04 0.04 0.02 0.02 0.01 0.01 0.01 0.01 0.02 0.02 0.03 0.02 0.02 0.01 0.00 0.00 0.00 0.00
0.33 0.29 0.27 0.23 0.28 0.36 0.29 0.25 0.18 0.18 0.17 0.15 0.14 0.12 0.11 0.14 0.11 0.11 0.11 0.13 0.15 0.19 0.19 0.12 0.08 0.06 0.05 0.02 0.02 0.01 0.01 0.01 0.01 0.01 0.02 0.02 0.01 0.01 0.00 0.00 0.00 0.00 0.00
0.33 0.40 0.35 0.40 0.40 0.42 0.43 0.39 0.32 0.24 0.19 0.14 0.13 0.12 0.12 0.12 0.09 0.10 0.11 0.12 0.14 0.18 0.20 0.16 0.12 0.08 0.05 0.03 0.03 0.02 0.02 0.01 0.01 0.01 0.02 0.01 0.01 0.01 0.01 0.00 0.00 0.00 0.00
0.55 0.48 0.54 0.48 0.42 0.51 0.55 0.54 0.48 0.53 0.46 0.34 0.27 0.23 0.22 0.23 0.19 0.21 0.27 0.29 0.31 0.31 0.25 0.22 0.16 0.09 0.05 0.04 0.06 0.06 0.05 0.03 0.02 0.02 0.02 0.03 0.03 0.02 0.02 0.01 0.01 0.00 0.00
1.06 0.76 0.72 0.77 0.84 0.72 0.68 0.71 0.67 0.62 0.51 0.43 0.36 0.34 0.34 0.31 0.28 0.31 0.34 0.31 0.33 0.29 0.26 0.23 0.21 0.16 0.12 0.09 0.13 0.14 0.11 0.10 0.11 0.14 0.16 0.11 0.08 0.06 0.05 0.04 0.03 0.01 0.01
1.20 1.12 0.98 1.04 1.03 1.15 1.13 1.09 0.97 0.83 0.75 0.65 0.56 0.44 0.36 0.41 0.43 0.44 0.45 0.38 0.38 0.42 0.47 0.50 0.44 0.37 0.29 0.23 0.21 0.20 0.33 0.33 0.30 0.22 0.18 0.15 0.11 0.09 0.08 0.07 0.06 0.04 0.03
1.20 1.47 1.19 1.08 1.09 0.96 1.16 1.27 1.21 1.05 1.04 1.06 0.96 0.79 0.67 0.74 0.68 0.74 0.73 0.67 0.63 0.63 0.62 0.57 0.47 0.39 0.24 0.16 0.18 0.31 0.40 0.47 0.44 0.19 0.12 0.18 0.17 0.16 0.10 0.06 0.10 0.06 0.03
1.15 1.35 1.34 1.08 1.17 1.23 1.22 1.20 1.44 1.35 1.16 1.05 0.95 0.87 0.87 0.91 0.96 0.89 0.94 0.95 0.96 1.07 1.00 0.86 0.76 0.54 0.42 0.35 0.41 0.52 0.51 0.44 0.37 0.23 0.20 0.24 0.14 0.08 0.04 0.04 0.10 0.07 0.06
1.17 1.19 1.02 1.15 1.17 1.37 1.31 1.09 1.23 1.25 1.34 1.34 1.33 1.31 1.23 1.12 1.12 1.14 1.05 1.01 0.98 0.97 0.93 0.89 0.92 0.84 0.77 0.68 0.64 0.57 0.48 0.46 0.42 0.27 0.19 0.17 0.09 0.06 0.05 0.06 0.14 0.12 0.09
0.57 0.70 0.56 0.60 0.75 0.71 0.94 0.88 0.85 0.73 0.69 0.73 0.87 0.93 0.99 1.02 1.08 1.01 0.85 0.85 0.83 0.82 0.86 0.82 0.72 0.66 0.63 0.58 0.50 0.46 0.42 0.36 0.31 0.24 0.19 0.18 0.13 0.11 0.11 0.09 0.08 0.13 0.12
0.35 0.42 0.37 0.29 0.39 0.46 0.56 0.53 0.54 0.46 0.43 0.44 0.43 0.40 0.44 0.43 0.50 0.51 0.49 0.52 0.55 0.54 0.53 0.51 0.51 0.49 0.48 0.48 0.46 0.43 0.41 0.39 0.35 0.31 0.26 0.27 0.19 0.19 0.20 0.12 0.08 0.07 0.09

GFSMA_prec_precacc24_147.txt.gz
Total_Precipitation_Accumulation
0.06 0.07 0.04 0.01 0.00 0.00 0.00 0.00 0.00 0.00 0.00 0.00 0.00 0.00 0.00 0.00 0.00 0.00 0.00 0.00 0.00 0.00 0.00 0.00 0.00 0.00 0.00 0.00 0.00 0.00 0.00 0.00 0.00 0.00 0.00 0.00 0.00 0.00 0.00 0.00 0.00 0.00 0.00
0.02 0.03 0.00 0.00 0.00 0.00 0.00 0.00 0.00 0.00 0.00 0.00 0.00 0.00 0.00 0.00 0.00 0.00 0.00 0.00 0.00 0.00 0.00 0.00 0.00 0.00 0.00 0.00 0.00 0.00 0.00 0.00 0.00 0.00 0.00 0.00 0.00 0.00 0.00 0.00 0.00 0.00 0.00
0.06 0.03 0.02 0.00 0.00 0.00 0.00 0.00 0.00 0.00 0.00 0.00 0.00 0.00 0.00 0.00 0.00 0.00 0.00 0.00 0.00 0.00 0.00 0.00 0.01 0.02 0.03 0.10 0.23 0.19 0.07 0.02 0.00 0.00 0.00 0.00 0.00 0.00 0.00 0.01 0.01 0.01 0.01
0.06 0.06 0.04 0.01 0.00 0.00 0.00 0.00 0.00 0.00 0.00 0.00 0.00 0.00 0.00 0.00 0.00 0.00 0.00 0.00 0.00 0.00 0.00 0.00 0.02 0.07 0.19 0.26 0.36 0.50 0.44 0.28 0.18 0.11 0.05 0.01 0.01 0.02 0.03 0.01 0.00 0.00 0.01
0.06 0.06 0.05 0.04 0.03 0.01 0.01 0.00 0.00 0.00 0.00 0.00 0.00 0.00 0.00 0.00 0.00 0.00 0.00 0.00 0.00 0.00 0.00 0.00 0.00 0.02 0.06 0.08 0.06 0.17 0.27 0.14 0.17 0.21 0.17 0.12 0.09 0.06 0.03 0.01 0.00 0.00 0.00
0.20 0.17 0.09 0.06 0.12 0.03 0.00 0.00 0.00 0.00 0.00 0.00 0.00 0.00 0.00 0.00 0.00 0.00 0.00 0.00 0.00 0.00 0.00 0.00 0.00 0.00 0.00 0.00 0.01 0.05 0.14 0.16 0.05 0.01 0.01 0.03 0.04 0.06 0.07 0.04 0.03 0.03 0.01
0.25 0.25 0.15 0.09 0.12 0.06 0.00 0.00 0.00 0.00 0.00 0.00 0.00 0.00 0.00 0.00 0.00 0.00 0.00 0.00 0.00 0.00 0.00 0.00 0.00 0.00 0.00 0.00 0.01 0.01 0.04 0.05 0.01 0.03 0.03 0.03 0.02 0.01 0.02 0.03 0.11 0.11 0.05
0.22 0.19 0.16 0.15 0.12 0.06 0.03 0.02 0.01 0.00 0.00 0.00 0.00 0.00 0.00 0.00 0.00 0.00 0.00 0.00 0.00 0.00 0.00 0.00 0.00 0.00 0.00 0.00 0.00 0.00 0.00 0.00 0.01 0.01 0.02 0.03 0.05 0.01 0.00 0.01 0.02 0.04 0.07
0.26 0.24 0.21 0.21 0.20 0.14 0.09 0.03 0.03 0.01 0.00 0.00 0.00 0.00 0.00 0.00 0.00 0.00 0.00 0.00 0.00 0.00 0.00 0.00 0.00 0.00 0.00 0.00 0.00 0.00 0.00 0.00 0.00 0.00 0.01 0.03 0.04 0.06 0.07 0.03 0.05 0.05 0.04
0.35 0.28 0.29 0.28 0.23 0.23 0.15 0.08 0.04 0.03 0.01 0.00 0.01 0.00 0.00 0.00 0.00 0.00 0.00 0.00 0.00 0.00 0.00 0.00 0.00 0.00 0.00 0.00 0.00 0.00 0.00 0.00 0.00 0.00 0.01 0.02 0.03 0.11 0.10 0.08 0.09 0.04 0.02
0.21 0.29 0.37 0.36 0.27 0.24 0.24 0.22 0.15 0.07 0.02 0.00 0.01 0.01 0.00 0.00 0.00 0.00 0.00 0.00 0.00 0.00 0.00 0.00 0.00 0.00 0.00 0.00 0.00 0.00 0.00 0.00 0.00 0.00 0.01 0.02 0.04 0.06 0.06 0.06 0.06 0.03 0.02
0.12 0.19 0.31 0.39 0.37 0.32 0.30 0.32 0.28 0.20 0.11 0.05 0.02 0.03 0.02 0.01 0.00 0.00 0.00 0.00 0.00 0.00 0.00 0.00 0.00 0.00 0.00 0.00 0.00 0.00 0.00 0.00 0.00 0.00 0.01 0.02 0.03 0.04 0.04 0.05 0.03 0.02 0.02
0.15 0.15 0.20 0.27 0.25 0.19 0.21 0.28 0.32 0.30 0.26 0.15 0.07 0.04 0.04 0.04 0.03 0.01 0.00 0.00 0.00 0.00 0.00 0.00 0.00 0.00 0.00 0.00 0.00 0.00 0.00 0.00 0.00 0.01 0.01 0.02 0.02 0.03 0.03 0.03 0.02 0.01 0.01
0.06 0.09 0.15 0.17 0.17 0.18 0.16 0.17 0.19 0.22 0.26 0.29 0.18 0.11 0.11 0.08 0.08 0.07 0.06 0.04 0.06 0.04 0.02 0.00 0.00 0.00 0.00 0.00 0.00 0.00 0.00 0.00 0.01 0.01 0.02 0.02 0.02 0.02 0.01 0.01 0.01 0.00 0.00
0.05 0.08 0.17 0.26 0.19 0.18 0.19 0.20 0.18 0.23 0.24 0.21 0.21 0.26 0.26 0.18 0.19 0.22 0.25 0.23 0.25 0.27 0.12 0.02 0.02 0.01 0.02 0.02 0.00 0.00 0.00 0.00 0.00 0.01 0.01 0.01 0.01 0.01 0.01 0.00 0.00 0.00 0.00
0.17 0.12 0.15 0.26 0.38 0.27 0.21 0.23 0.20 0.18 0.26 0.30 0.26 0.25 0.26 0.21 0.19 0.26 0.36 0.40 0.42 0.43 0.33 0.09 0.07 0.06 0.06 0.05 0.04 0.02 0.02 0.01 0.01 0.02 0.02 0.02 0.01 0.01 0.01 0.00 0.00 0.00 0.00
0.29 0.27 0.26 0.22 0.28 0.36 0.29 0.26 0.20 0.20 0.19 0.18 0.19 0.17 0.17 0.23 0.23 0.22 0.20 0.24 0.28 0.36 0.35 0.16 0.09 0.06 0.05 0.02 0.02 0.01 0.01 0.01 0.01 0.01 0.01 0.01 0.01 0.01 0.00 0.00 0.00 0.00 0.00
0.28 0.34 0.32 0.38 0.39 0.41 0.43 0.39 0.32 0.26 0.23 0.18 0.17 0.15 0.17 0.19 0.17 0.18 0.17 0.16 0.18 0.22 0.24 0.17 0.12 0.08 0.06 0.03 0.03 0.02 0.02 0.01 0.01 0.01 0.02 0.01 0.01 0.01 0.01 0.01 0.00 0.00 0.00
0.36 0.34 0.41 0.39 0.37 0.48 0.53 0.53 0.46 0.48 0.45 0.35 0.30 0.29 0.27 0.30 0.26 0.29 0.33 0.32 0.33 0.33 0.27 0.22 0.16 0.09 0.05 0.04 0.06 0.06 0.05 0.04 0.02 0.03 0.03 0.02 0.03 0.02 0.02 0.02 0.01 0.00 0.00
0.89 0.51 0.45 0.57 0.71 0.64 0.60 0.65 0.62 0.56 0.46 0.43 0.38 0.37 0.39 0.38 0.38 0.40 0.42 0.35 0.37 0.32 0.28 0.24 0.21 0.17 0.12 0.10 0.19 0.22 0.22 0.21 0.21 0.21 0.17 0.12 0.09 0.06 0.05 0.04 0.03 0.02 0.01
1.17 1.04 0.88 0.91 0.82 0.95 1.01 1.01 0.90 0.80 0.73 0.65 0.64 0.57 0.47 0.50 0.55 0.56 0.52 0.42 0.41 0.44 0.48 0.50 0.46 0.42 0.37 0.32 0.31 0.28 0.36 0.34 0.31 0.22 0.18 0.15 0.11 0.10 0.08 0.09 0.07 0.05 0.05
1.19 1.46 1.19 1.07 1.07 0.94 1.13 1.24 1.18 1.03 1.05 1.09 1.00 0.86 0.78 0.84 0.75 0.78 0.75 0.71 0.68 0.68 0.65 0.64 0.55 0.47 0.32 0.24 0.23 0.34 0.41 0.47 0.45 0.19 0.12 0.18 0.17 0.16 0.09 0.07 0.11 0.09 0.07
1.06 1.29 1.25 0.98 1.07 1.18 1.22 1.19 1.46 1.40 1.23 1.10 1.02 0.91 0.90 0.93 0.99 0.92 0.97 0.98 1.00 1.12 1.05 0.92 0.81 0.63 0.49 0.41 0.45 0.54 0.52 0.45 0.38 0.23 0.20 0.24 0.14 0.07 0.04 0.04 0.10 0.08 0.08
1.15 1.16 0.94 0.97 0.98 1.30 1.31 1.09 1.25 1.26 1.36 1.35 1.34 1.33 1.24 1.14 1.14 1.17 1.08 1.05 1.03 1.02 0.99 0.94 0.95 0.87 0.79 0.69 0.64 0.57 0.48 0.46 0.42 0.27 0.20 0.17 0.09 0.06 0.05 0.06 0.13 0.12 0.09
0.57 0.70 0.55 0.56 0.69 0.70 0.94 0.91 0.89 0.76 0.70 0.74 0.87 0.94 1.02 1.05 1.17 1.09 0.90 0.91 0.89 0.85 0.91 0.86 0.74 0.67 0.64 0.59 0.50 0.46 0.42 0.36 0.31 0.24 0.19 0.18 0.13 0.11 0.11 0.09 0.08 0.13 0.12
0.35 0.42 0.37 0.30 0.38 0.46 0.60 0.65 0.71 0.67 0.54 0.50 0.50 0.48 0.54 0.50 0.60 0.59 0.54 0.54 0.55 0.54 0.53 0.51 0.51 0.49 0.48 0.48 0.46 0.43 0.41 0.39 0.35 0.31 0.27 0.27 0.19 0.19 0.20 0.12 0.08 0.07 0.09